Theta_e
321 320 320 319 318 318 319 319 319 319 319 320 320 319 319 320 321 322 313 317 320 330 325 316 317 316 317 315 314 314 312 310 311 314 321 327 325 332 334 333 336 337 338 345 349
321 321 320 319 319 319 318 319 319 319 319 320 320 319 319 321 320 315 323 333 334 331 316 315 313 315 315 313 314 312 315 313 316 322 324 326 327 330 329 330 334 337 344 347 348
321 321 321 320 320 319 319 318 318 319 320 320 320 321 320 322 321 319 333 335 336 327 316 317 316 315 312 313 312 312 311 313 315 321 329 327 328 330 328 326 330 334 338 342 341
321 321 320 320 320 320 319 319 319 320 320 320 320 321 321 324 308 323 341 336 335 320 315 317 315 312 311 310 313 309 311 312 313 315 326 327 331 330 331 330 337 338 338 338 337
320 320 320 320 320 319 319 319 319 319 319 319 321 320 323 319 316 330 338 330 320 315 314 315 313 312 310 311 312 310 310 311 312 324 326 330 329 329 330 336 339 339 338 338 339
319 319 319 319 319 319 319 318 318 318 318 319 322 320 324 310 324 328 322 318 315 315 317 317 314 315 312 311 311 312 311 311 312 319 325 322 324 328 329 336 336 336 336 337 337
318 317 318 318 319 319 319 318 317 318 318 321 323 325 321 316 327 324 318 317 316 318 315 317 317 314 314 311 313 312 309 310 310 311 316 320 317 323 330 334 334 333 334 334 335
317 316 317 318 318 319 318 318 317 318 319 322 324 328 316 328 329 322 321 320 321 320 318 318 317 315 314 315 312 309 310 305 310 310 314 310 311 325 331 331 330 330 331 332 333
316 315 316 317 318 318 318 317 317 319 322 323 327 323 315 321 319 323 323 317 319 318 318 315 316 313 313 309 307 308 303 304 306 312 309 309 312 326 330 329 328 329 330 330 331
316 315 315 316 317 316 316 319 320 321 324 326 324 318 318 313 319 319 323 320 315 315 314 313 313 309 309 307 300 303 303 304 304 311 311 309 315 323 327 329 327 328 328 329 328
316 315 315 315 315 315 316 323 318 316 318 312 313 313 314 319 320 317 320 317 315 313 307 311 306 303 306 308 308 307 305 304 306 314 313 312 316 320 325 327 326 327 327 327 326
316 315 315 314 314 315 320 317 315 317 309 316 315 315 317 319 312 315 320 312 311 307 309 307 304 308 308 308 306 306 305 305 311 312 315 315 315 320 323 325 326 326 326 326 324
314 314 315 314 313 317 320 316 320 319 310 310 313 313 315 317 311 312 316 312 309 307 307 305 307 309 307 306 305 306 306 305 306 313 315 314 312 316 321 324 324 325 326 324 322
314 314 314 312 315 317 318 319 321 320 306 305 309 313 316 316 309 316 317 313 310 307 307 307 309 307 307 306 308 304 307 306 306 306 303 312 300 313 319 320 322 325 324 322 320
313 314 313 311 318 313 317 320 321 318 295 308 309 318 316 311 311 311 317 313 307 308 308 305 307 306 306 306 308 306 308 306 305 304 304 304 301 308 317 316 320 323 324 323 321
313 313 312 315 318 317 319 321 320 303 292 306 310 308 308 310 310 312 312 315 313 309 309 308 311 309 308 308 308 309 307 307 307 305 298 302 301 302 308 309 314 324 323 322 319
312 312 312 317 312 319 320 318 302 295 303 304 304 306 307 306 307 309 308 307 305 302 303 306 307 309 310 307 308 308 306 298 297 297 296 303 300 303 309 313 315 318 322 321 318
310 309 313 316 320 322 319 308 295 298 300 309 307 307 303 306 307 307 306 305 308 306 304 301 299 307 309 308 306 306 306 299 293 295 299 303 298 306 314 319 319 321 323 318 317
308 318 318 322 321 322 313 299 299 300 305 304 307 304 304 306 306 306 306 305 307 308 302 302 301 308 308 309 309 306 302 307 302 302 298 301 304 309 314 316 319 321 317 315 317
313 314 315 322 323 319 308 299 302 305 307 306 301 305 302 304 303 305 305 308 306 310 313 307 301 306 306 309 308 308 309 301 303 294 292 298 298 300 308 312 318 320 317 316 318
314 308 316 324 322 314 303 304 304 307 307 304 304 304 305 304 305 305 305 307 309 309 312 310 307 304 306 305 305 305 304 305 305 301 295 293 298 309 307 315 316 321 322 319 319
312 304 316 320 309 310 306 307 304 306 309 306 307 307 306 306 306 305 304 307 310 311 306 311 309 302 303 308 309 308 307 307 300 299 301 299 298 312 314 315 318 320 323 323 322
307 308 318 317 300 303 308 307 308 306 307 306 305 307 308 307 304 307 307 308 308 310 309 311 307 300 301 305 307 305 307 307 307 306 300 296 299 312 313 314 316 318 321 323 324
307 301 309 311 308 305 303 304 305 310 308 309 307 309 307 306 309 306 306 307 309 310 308 313 310 304 299 302 306 303 304 306 306 300 300 300 301 307 310 310 312 313 315 318 322
307 302 307 303 305 305 305 303 301 302 309 310 308 307 306 304 305 305 308 307 308 308 309 313 305 306 306 304 304 303 303 304 303 304 299 301 302 306 309 311 312 315 315 316 317
304 302 308 304 307 305 303 304 303 303 304 305 305 307 308 305 307 305 308 309 307 309 309 312 304 306 303 304 303 301 303 303 303 304 303 304 303 310 312 312 312 314 315 315 316
310 310 306 302 303 302 302 302 304 306 309 308 308 308 306 308 312 314 314 314 313 310 309 308 306 303 298 303 302 298 302 303 304 306 305 301 306 309 308 310 312 314 315 314 314
Wind_Speed
16 14 11 10 9 9 9 9 9 9 9 8 7 8 7 8 9 8 5 4 1 4 4 4 7 6 7 4 3 5 7 7 7 8 10 7 12 7 4 12 12 8 11 15 16
17 15 12 9 8 8 9 10 9 9 8 8 8 8 8 6 9 8 7 6 5 3 7 9 7 8 7 3 3 8 2 10 5 4 9 9 12 11 9 12 13 14 15 15 15
16 14 12 13 12 11 9 9 9 8 7 7 9 9 8 8 9 8 5 8 7 6 5 3 4 9 6 4 2 1 10 5 9 7 6 13 12 4 11 13 7 15 15 14 14
16 16 16 15 14 12 10 9 8 8 7 7 8 7 6 8 2 6 4 8 6 7 6 4 6 9 6 4 1 5 3 4 8 4 5 10 10 16 16 10 13 14 14 13 12
17 18 17 16 14 12 10 8 7 8 7 8 7 4 7 8 9 7 8 7 7 6 7 4 8 6 8 3 4 2 4 3 5 9 13 15 15 14 15 12 13 13 12 12 10
19 19 18 17 15 13 10 6 6 8 7 8 7 3 7 6 4 6 6 6 4 6 1 4 0 3 5 3 6 3 4 6 4 7 7 9 11 3 9 9 12 11 11 10 9
20 19 19 18 17 14 9 5 7 6 7 9 7 6 7 9 2 7 6 3 3 1 2 2 3 7 2 8 1 3 10 9 5 6 5 7 8 10 7 9 11 10 9 9 9
21 20 20 20 19 15 10 4 6 6 8 9 7 6 5 3 2 6 6 5 4 2 3 4 4 2 5 2 6 10 8 14 11 7 7 5 14 9 6 9 9 8 8 8 9
22 22 22 21 20 17 10 2 6 7 7 6 7 7 8 4 5 4 5 3 5 4 2 2 5 3 6 11 10 9 12 13 11 2 5 12 12 9 6 8 8 7 7 7 9
22 23 23 23 21 15 8 2 7 7 7 7 5 6 6 2 3 5 4 3 3 6 6 6 6 9 10 10 11 10 11 5 11 6 10 12 8 8 7 9 8 8 7 7 7
24 24 24 23 22 12 8 6 5 7 7 8 6 5 3 2 4 8 6 7 5 7 11 6 10 12 13 13 8 1 5 3 3 2 4 3 7 8 8 9 10 9 8 7 8
23 24 26 27 24 14 7 5 6 6 8 10 11 10 9 3 5 8 7 8 8 10 7 9 13 1 5 5 9 9 8 7 5 4 5 9 8 7 8 10 8 8 8 9 10
23 23 25 30 24 7 5 7 8 4 8 1 3 6 6 11 7 12 11 5 7 7 10 11 8 5 9 10 11 8 9 6 2 7 3 9 9 11 10 8 8 8 6 7 9
21 22 22 33 5 8 0 7 8 5 7 6 6 6 8 7 7 5 10 3 7 3 6 6 6 9 10 11 9 11 2 3 6 8 4 7 6 14 15 14 13 13 11 11 10
21 21 19 13 9 6 7 9 5 5 5 3 6 4 6 7 12 8 6 6 3 4 7 7 9 10 11 3 2 7 3 2 2 7 8 12 9 7 11 12 15 15 13 12 12
21 22 19 4 6 7 10 10 5 8 2 4 5 9 12 8 7 9 9 6 2 4 3 6 2 3 3 6 1 9 7 5 6 8 12 7 6 12 11 6 8 16 14 14 14
23 26 15 4 6 9 10 6 7 7 2 5 2 5 13 10 10 10 12 12 9 10 10 7 9 5 6 9 7 9 8 9 8 9 6 6 6 11 4 1 4 6 14 14 14
26 26 4 6 7 8 6 6 7 2 3 1 2 5 10 11 10 11 9 11 7 9 8 9 11 11 4 7 6 10 9 10 8 7 4 6 7 3 3 1 4 6 12 14 15
27 6 5 2 5 4 8 8 4 2 1 3 6 8 11 10 7 13 15 13 8 10 9 8 9 7 1 2 5 7 10 5 9 9 10 13 4 10 4 4 5 9 12 13 14
9 8 4 8 4 7 8 11 4 4 2 4 7 2 7 14 13 12 14 10 9 8 4 4 5 4 6 4 4 7 5 6 9 9 12 7 5 9 7 7 8 12 14 15 13
6 6 7 2 5 7 10 10 6 7 5 5 5 6 6 6 11 15 11 8 7 10 8 6 8 8 5 11 9 7 10 6 6 6 10 12 6 5 3 6 8 10 12 14 13
4 6 4 4 7 6 12 7 3 7 8 6 7 9 10 4 7 11 13 6 5 10 8 8 7 12 12 5 3 5 10 8 9 9 7 9 14 6 4 3 6 8 10 12 11
4 5 3 4 7 9 9 9 12 9 10 6 7 9 5 9 6 8 7 4 5 10 9 9 8 11 8 7 7 10 11 10 7 6 14 14 10 5 6 6 4 5 8 11 11
4 5 5 6 8 11 12 15 16 12 14 11 10 9 10 11 10 5 8 6 5 7 2 4 7 12 13 8 2 10 12 13 14 11 14 15 17 7 9 7 4 5 3 5 6
5 4 5 3 6 7 11 8 14 17 15 12 13 15 15 16 16 14 8 7 6 7 7 6 10 12 14 6 6 9 10 14 17 17 17 14 14 9 12 11 6 5 3 3 3
4 4 5 7 7 8 6 9 14 16 14 13 16 18 15 18 18 15 13 10 9 11 9 6 9 7 13 8 10 14 14 16 17 18 16 17 18 15 13 8 7 5 6 8 10
3 3 5 3 8 10 12 13 10 2 10 16 13 13 15 13 18 14 13 9 8 11 13 9 8 8 15 9 11 15 19 20 19 19 14 17 12 7 4 6 7 8 9 11 11
Wind_Direction
1 357 345 328 315 305 303 303 298 294 298 303 299 291 294 298 286 212 231 67 110 137 229 191 200 189 217 212 246 266 234 167 124 193 113 139 138 89 112 107 61 47 65 99 130
355 349 343 337 330 318 319 304 291 296 296 302 294 285 283 296 253 232 107 128 159 193 223 204 180 190 203 199 198 265 132 57 47 84 102 132 130 118 138 117 97 94 97 115 134
344 336 344 348 344 337 317 300 296 288 290 302 292 286 278 277 238 83 149 166 212 237 265 270 225 225 208 228 105 355 83 75 76 65 95 117 99 48 128 81 59 109 116 123 125
336 343 347 341 340 325 315 302 287 287 297 292 285 280 281 244 142 67 115 162 198 261 236 205 210 200 197 184 28 206 74 30 57 67 120 85 107 75 59 85 92 105 109 120 126
338 348 343 336 327 318 302 296 309 294 288 281 273 263 256 204 70 101 135 152 195 225 247 228 205 202 190 150 171 223 98 82 58 77 93 86 77 90 78 89 96 99 98 94 94
343 349 341 333 330 318 300 316 305 282 275 269 258 225 252 103 47 139 146 169 213 223 226 251 180 305 135 153 262 87 131 121 123 111 112 106 95 149 82 114 107 103 97 86 80
347 345 340 337 339 321 318 329 279 265 264 256 249 257 255 77 69 151 173 122 153 306 184 51 350 253 182 160 122 155 181 147 143 141 132 144 106 87 111 134 122 112 99 87 77
343 344 342 343 342 339 344 283 256 242 236 246 255 253 65 91 152 184 183 168 184 229 301 338 291 287 285 83 188 212 239 190 139 181 156 266 133 121 138 151 132 122 113 101 79
343 344 344 343 347 347 354 152 196 209 228 220 239 270 113 134 195 148 204 140 138 151 136 292 265 299 191 210 196 201 221 221 140 154 170 227 122 128 161 159 147 147 128 113 103
343 346 344 340 345 339 334 248 168 184 209 236 258 228 168 51 113 148 165 251 181 160 187 221 227 226 222 220 213 186 232 221 256 115 218 206 107 160 177 182 169 156 145 128 104
345 343 341 339 335 328 281 203 237 182 256 294 338 317 304 145 199 188 169 174 184 215 222 194 241 217 212 224 317 258 250 208 71 118 228 230 165 174 179 194 181 172 162 140 112
340 339 338 334 333 315 265 44 31 342 297 279 261 266 260 284 193 176 188 209 204 216 189 202 229 156 282 198 222 224 207 125 120 148 263 182 184 202 194 199 190 180 172 149 142
336 337 338 327 325 297 343 42 329 233 264 285 216 236 197 201 207 175 202 190 213 195 205 256 84 158 195 191 204 211 236 154 18 151 206 187 184 191 194 202 203 213 173 160 155
332 333 339 323 304 343 101 345 331 214 268 119 172 164 178 212 179 169 210 242 197 237 206 222 121 179 193 185 231 174 143 164 156 227 239 208 280 187 173 202 206 198 193 178 161
328 329 337 325 314 288 357 327 325 229 266 89 136 91 170 217 126 164 182 208 226 138 238 115 173 186 197 134 250 87 158 215 242 261 290 194 249 109 172 202 206 205 195 186 172
325 322 337 217 251 287 316 307 231 234 188 133 147 185 184 193 174 135 185 220 354 206 240 90 103 262 61 107 243 143 174 201 240 260 246 249 263 266 189 223 216 187 197 186 174
323 317 317 295 310 329 310 248 240 255 128 129 168 210 213 176 175 188 187 197 213 202 195 173 162 128 177 150 154 212 222 246 225 207 246 103 243 272 87 18 253 229 196 183 171
323 313 186 273 300 309 257 227 248 65 258 95 221 241 220 186 209 191 202 210 223 249 257 208 178 181 158 265 277 214 285 276 287 273 268 153 249 101 74 222 229 242 184 176 176
311 301 262 183 279 249 237 227 252 244 350 300 259 235 199 216 245 204 216 221 194 210 234 217 228 127 22 201 277 166 234 357 289 248 262 264 212 202 181 189 192 188 176 182 181
315 299 262 330 218 212 228 245 250 211 250 238 253 238 249 203 202 210 203 215 202 217 240 194 240 203 142 187 110 282 106 206 205 272 277 277 243 268 184 202 190 189 193 188 184
267 290 87 337 241 213 231 230 239 202 232 239 251 251 246 268 237 219 219 166 218 181 208 217 244 147 188 209 230 172 216 240 301 303 296 294 302 66 223 180 189 201 200 196 192
285 255 82 299 227 221 235 205 210 195 198 238 261 261 261 261 242 239 240 234 179 180 195 198 240 244 218 100 281 277 262 231 252 245 237 298 280 102 142 215 208 206 204 213 217
267 284 134 260 244 217 219 244 238 221 224 226 240 239 255 253 245 226 234 91 197 200 190 177 207 221 199 189 194 226 211 236 257 278 263 278 266 140 160 181 185 233 220 214 218
269 266 181 208 254 271 246 242 233 224 253 243 246 262 261 247 233 234 201 166 186 216 353 194 231 232 255 296 64 197 219 218 222 254 274 260 263 214 186 216 223 244 237 270 247
212 224 4 222 196 242 250 264 250 236 232 239 238 245 246 245 241 227 206 166 182 156 182 226 234 234 250 254 233 252 231 223 233 248 260 271 272 264 271 264 277 308 257 186 142
271 246 180 275 264 247 201 234 244 253 255 239 235 253 238 245 243 235 226 209 199 182 197 192 234 238 240 228 253 251 244 249 239 243 254 258 268 276 277 278 247 231 158 125 108
175 218 279 241 234 239 241 229 246 303 268 263 273 278 255 255 251 272 282 245 242 197 195 196 213 220 251 257 265 255 246 245 242 243 254 256 274 7 249 220 195 157 133 119 109